DW0307 Weather Reports


time (UTC)temp
C
wind
direction
speed
KPH
gust
KPH
rain 1hr
cm
rain 24hr
cm
rain mn
cm
humidity
%
barometer
mb
20260509091554 10 35 9.7 17.7 0.00 0.18 0.00 82 1018.8
20260509090053 10 15 8.0 14.5 0.00 0.18 0.00 84 1018.7
20260509084550 9 59 9.7 16.1 0.00 0.18 0.00 85 1018.7
20260509083055 9 51 4.8 14.5 0.00 0.18 0.00 87 1018.8
20260509081552 8 85 4.8 16.1 0.00 0.18 0.00 88 1018.6
20260509080044 8 67 9.7 16.1 0.00 0.18 0.00 88 1018.6
20260509074558 8 84 9.7 16.1 0.00 0.18 0.00 89 1018.4
20260509073050 8 42 9.7 19.3 0.00 0.18 0.00 89 1018.5
20260509071550 8 47 8.0 20.9 0.00 0.18 0.00 89 1018.5
20260509070048 8 45 9.7 19.3 0.00 0.18 0.00 90 1018.4
20260509064559 8 92 8.0 19.3 0.00 0.18 0.00 90 1018.3
20260509063046 8 74 9.7 19.3 0.00 0.18 0.00 90 1018.2
20260509061544 8 52 9.7 17.7 0.00 0.18 0.00 90 1018.3
20260509060050 8 90 8.0 20.9 0.00 0.18 0.00 90 1018.2
20260509054549 8 49 9.7 17.7 0.00 0.18 0.00 90 1018.2
20260509053052 8 51 8.0 17.7 0.00 0.18 0.00 90 1018.1
20260509051551 8 55 9.7 17.7 0.00 0.18 0.00 90 1018.1
20260509050046 8 24 8.0 17.7 0.00 0.18 0.00 90 1018.1
20260509044550 8 53 8.0 14.5 0.00 0.18 0.00 91 1018.1
20260509043055 8 72 11.3 17.7 0.00 0.18 0.00 91 1017.9
20260509041548 8 78 9.7 16.1 0.00 0.18 0.00 91 1017.9
20260509040043 8 38 6.4 11.3 0.00 0.18 0.00 91 1017.9
20260509034551 8 46 3.2 9.7 0.00 0.18 0.00 91 1017.9
20260509033054 8 49 1.6 11.3 0.00 0.18 0.00 91 1017.8
20260509031545 8 38 6.4 14.5 0.00 0.18 0.00 90 1017.8
20260509030049 8 39 6.4 14.5 0.00 0.18 0.00 91 1017.9
20260509024617 8 49 6.4 12.9 0.00 0.18 0.00 91 1017.8
20260509023044 8 42 8.0 12.9 0.00 0.18 0.00 91 1017.8
20260509021549 8 360 6.4 14.5 0.00 0.18 0.00 90 1017.9
20260509020043 8 42 8.0 14.5 0.00 0.18 0.00 90 1017.9
20260509014550 8 44 6.4 11.3 0.00 0.18 0.00 90 1018.0
20260509013054 8 44 6.4 14.5 0.00 0.18 0.00 90 1018.1
20260509011549 8 35 6.4 14.5 0.00 0.18 0.00 90 1018.0
20260509010051 8 53 6.4 11.3 0.00 0.18 0.00 90 1017.9
20260509004554 9 63 6.4 12.9 0.00 0.18 0.00 90 1017.8
20260509003048 9 46 8.0 14.5 0.00 0.18 0.00 90 1017.9
20260509001554 9 45 3.2 14.5 0.00 0.18 0.00 89 1017.9
20260509000049 9 21 6.4 11.3 0.00 0.18 0.00 89 1018.1
20260508234552 9 48 4.8 12.9 0.00 0.20 0.00 89 1018.1
20260508233052 10 51 4.8 11.3 0.00 0.20 0.00 89 1018.1
20260508231552 10 55 6.4 11.3 0.00 0.20 0.00 89 1018.2
20260508230051 10 44 3.2 9.7 0.00 0.20 0.00 89 1018.3
20260508224549 10 59 4.8 9.7 0.00 0.30 0.00 89 1018.4
20260508223051 10 57 4.8 12.9 0.00 0.30 0.00 89 1018.4
20260508221555 10 57 6.4 9.7 0.00 0.30 0.00 88 1018.4
20260508220058 10 48 4.8 14.5 0.00 0.30 0.00 88 1018.3
20260508214603 10 42 3.2 8.0 0.00 0.30 0.30 88 1018.4
20260508213049 10 37 3.2 16.1 0.00 0.30 0.30 88 1018.5
20260508211556 10 53 8.0 17.7 0.00 0.30 0.30 88 1018.3
20260508210055 10 71 6.4 14.5 0.00 0.30 0.30 87 1018.4
20260508204551 10 80 3.2 6.4 0.00 0.36 0.30 87 1018.4
20260508203050 10 50 6.4 9.7 0.00 0.36 0.30 87 1018.2
20260508201547 10 24 4.8 12.9 0.00 0.36 0.30 87 1018.1
20260508200044 10 0 0.0 4.8 0.00 0.36 0.30 87 1018.2
20260508194548 10 48 6.4 11.3 0.00 0.38 0.30 87 1018.0
20260508193105 10 28 9.7 22.5 0.00 0.38 0.30 87 1017.8
20260508191551 10 38 11.3 22.5 0.00 0.38 0.30 87 1017.6
20260508190058 10 31 9.7 19.3 0.08 0.38 0.30 87 1017.5
20260508184542 11 54 11.3 20.9 0.13 0.46 0.30 87 1017.4
20260508183109 11 51 8.0 17.7 0.10 0.43 0.28 86 1017.2
20260508181552 11 30 11.3 22.5 0.10 0.43 0.28 84 1017.1
20260508180100 12 46 4.8 16.1 0.03 0.36 0.20 82 1017.1
20260508174601 12 5 8.0 17.7 0.00 0.51 0.18 80 1017.1
20260508173047 12 59 9.7 19.3 0.00 0.51 0.18 80 1016.8
20260508171543 12 32 12.9 20.9 0.00 0.51 0.18 80 1016.7
20260508170107 12 35 12.9 22.5 0.00 0.51 0.18 80 1016.6
20260508164552 12 49 9.7 22.5 0.00 0.74 0.18 80 1016.7
20260508163051 13 28 14.5 22.5 0.00 0.74 0.18 79 1016.6
20260508161549 13 5 11.3 17.7 0.00 0.71 0.15 77 1016.6
20260508160052 13 34 11.3 22.5 0.00 0.71 0.15 79 1016.5
20260508154548 13 19 9.7 20.9 0.00 0.91 0.15 78 1016.5
20260508153056 14 38 9.7 20.9 0.00 0.91 0.15 78 1016.6
20260508151550 14 33 14.5 22.5 0.00 0.91 0.15 76 1016.4
20260508150049 15 53 11.3 17.7 0.00 0.91 0.15 75 1016.4
20260508144553 15 45 16.1 25.7 0.00 0.94 0.15 75 1016.3
20260508143055 15 39 11.3 19.3 0.00 0.94 0.15 76 1016.2
20260508141550 15 48 11.3 17.7 0.00 0.94 0.15 77 1016.3
20260508140041 15 34 9.7 19.3 0.00 0.94 0.15 77 1016.2
20260508134545 14 44 12.9 19.3 0.00 0.97 0.15 79 1016.2
20260508133045 14 42 8.0 19.3 0.00 0.97 0.15 80 1016.2
20260508131556 14 38 14.5 20.9 0.00 0.97 0.15 78 1016.3
20260508130053 15 17 16.1 22.5 0.00 0.97 0.15 78 1016.2
20260508124548 14 42 14.5 22.5 0.00 0.97 0.15 77 1016.4
20260508123052 15 28 11.3 19.3 0.00 0.97 0.15 73 1016.3
20260508121558 15 113 8.0 16.1 0.00 0.97 0.15 67 1016.3
20260508120109 16 46 3.2 19.3 0.00 0.97 0.15 65 1016.2
20260508114559 17 26 4.8 16.1 0.00 0.97 0.15 66 1015.9
20260508113106 16 63 9.7 17.7 0.00 0.97 0.15 67 1016.0
20260508111551 16 40 9.7 19.3 0.00 0.97 0.15 68 1016.1
20260508110100 15 46 12.9 20.9 0.00 0.97 0.15 67 1016.0
20260508104548 15 56 9.7 22.5 0.00 0.97 0.15 70 1016.1
20260508103058 16 71 9.7 22.5 0.00 0.97 0.15 71 1016.0
20260508101554 16 34 11.3 22.5 0.00 0.97 0.15 71 1015.9
20260508100047 15 77 8.0 19.3 0.00 0.97 0.15 74 1016.1
20260508094547 15 53 8.0 17.7 0.00 0.97 0.15 77 1016.1
20260508093047 13 5 8.0 17.7 0.00 0.97 0.15 82 1016.2